Location: Carabito
(9.8355°N, 67.9249°W)
Time: 20:17:04
(UTC+00:00)

ASTRO E2 - Pass Details

Date: 23 May 2024
Orbit: 425 x 429 km, 31.4° (Epoch: 23 June)

Event Time Altitude Azimuth Distance (km) Brightness Sun altitude
Exits shadow 09:31:43 11° 221° (SW) 1,441 4.4 -9.5°
Maximum altitude 09:34:52 46° 147° (SSE) 570 3.0 -8.8°
Drops below altitude 10° 09:38:10 10° 72° (ENE) 1,498 6.8 -8.1°
Sets 09:40:21 0° 66° (ENE) 2,363 8.7 -7.6°
